When you browse on this site, cookies collect data to enhance your experience and personalize the content and advertising you see.
Visit our Privacy Policy to learn more. By continuing to use the site, you agree to this use of cookies and data.
  • In Schweiz
  • Länderverzeichnis
  • Für 7 Tage
  • Wassertemperatur
  • Satellitenkarten
  • Wetterkarte
  • Widgets
  • user-avatar
    Anmelden

    Stündliche Wetter Dorogonka

    Heute, 16 Juni, Sonntag

    Zeit Temperatur Niederschläge Wind Luftdruck Luftfeuchtigkeit
    00:00 +15°C° 0 mm 1 m/S 742 mmHg 94%
    01:00 +14°C° 0 mm 1 m/S 742 mmHg 94%
    02:00 +13°C° 0 mm 0 m/S 743 mmHg 94%
    03:00 +13°C° 0.1 mm 0 m/S 743 mmHg 94%
    04:00 +14°C° 0.1 mm 0 m/S 743 mmHg 93%
    05:00 +15°C° 0.1 mm 0 m/S 742 mmHg 93%
    06:00 +18°C° 0.2 mm 1 m/S 743 mmHg 90%
    07:00 +19°C° 0.2 mm 1 m/S 743 mmHg 88%
    08:00 +19°C° 0.2 mm 2 m/S 743 mmHg 86%
    09:00 +20°C° 0.5 mm 2 m/S 743 mmHg 80%
    10:00 +21°C° 0.5 mm 3 m/S 743 mmHg 75%
    11:00 +21°C° 0.5 mm 3 m/S 743 mmHg 69%
    12:00 +22°C° 0 mm 3 m/S 743 mmHg 67%
    13:00 +22°C° 0 mm 3 m/S 743 mmHg 64%
    14:00 +24°C° 0 mm 3 m/S 743 mmHg 61%
    15:00 +24°C° 0.1 mm 3 m/S 743 mmHg 64%
    16:00 +23°C° 0.1 mm 2 m/S 743 mmHg 67%
    17:00 +23°C° 0.1 mm 2 m/S 742 mmHg 69%
    18:00 +21°C° 0.1 mm 2 m/S 743 mmHg 75%
    19:00 +20°C° 0.1 mm 1 m/S 743 mmHg 81%
    20:00 +18°C° 0.1 mm 1 m/S 743 mmHg 86%
    21:00 +18°C° 0 mm 1 m/S 743 mmHg 87%
    22:00 +16°C° 0 mm 1 m/S 743 mmHg 88%
    23:00 +15°C° 0 mm 1 m/S 743 mmHg 89%

    Morgen, 17 Juni, Montag

    Zeit Temperatur Niederschläge Wind Luftdruck Luftfeuchtigkeit
    00:00 +15°C° 0 mm 1 m/S 743 mmHg 89%
    01:00 +15°C° 0 mm 1 m/S 744 mmHg 89%
    02:00 +14°C° 0 mm 1 m/S 744 mmHg 90%
    03:00 +15°C° 0 mm 1 m/S 744 mmHg 89%
    04:00 +16°C° 0 mm 1 m/S 744 mmHg 89%
    05:00 +16°C° 0 mm 1 m/S 744 mmHg 89%
    06:00 +19°C° 0 mm 1 m/S 744 mmHg 84%
    07:00 +20°C° 0 mm 1 m/S 744 mmHg 78%
    08:00 +22°C° 0 mm 1 m/S 744 mmHg 73%
    09:00 +23°C° 0 mm 2 m/S 744 mmHg 69%
    10:00 +24°C° 0 mm 2 m/S 744 mmHg 64%
    11:00 +25°C° 0 mm 3 m/S 744 mmHg 60%
    12:00 +25°C° 0 mm 3 m/S 744 mmHg 60%
    13:00 +25°C° 0 mm 3 m/S 743 mmHg 61%
    14:00 +25°C° 0 mm 3 m/S 743 mmHg 62%
    15:00 +25°C° 0 mm 2 m/S 743 mmHg 63%
    16:00 +25°C° 0 mm 2 m/S 743 mmHg 64%
    17:00 +25°C° 0 mm 2 m/S 743 mmHg 66%
    18:00 +24°C° 0 mm 1 m/S 743 mmHg 69%
    19:00 +22°C° 0 mm 1 m/S 743 mmHg 72%
    20:00 +19°C° 0 mm 0 m/S 743 mmHg 75%
    21:00 +18°C° 0 mm 0 m/S 743 mmHg 77%
    22:00 +20°C° 0 mm 1 m/S 743 mmHg 78%
    23:00 +20°C° 0 mm 1 m/S 743 mmHg 80%

    übermorgen, 18 Juni, Dienstag

    Zeit Temperatur Niederschläge Wind Luftdruck Luftfeuchtigkeit
    00:00 +19°C° 0 mm 1 m/S 743 mmHg 83%
    01:00 +19°C° 0 mm 1 m/S 743 mmHg 86%
    02:00 +16°C° 0 mm 0 m/S 743 mmHg 88%
    03:00 +17°C° 0.1 mm 0 m/S 743 mmHg 89%
    04:00 +17°C° 0.1 mm 0 m/S 743 mmHg 89%
    05:00 +17°C° 0.1 mm 0 m/S 743 mmHg 89%
    06:00 +20°C° 0.3 mm 1 m/S 743 mmHg 86%
    07:00 +22°C° 0.3 mm 1 m/S 743 mmHg 82%
    08:00 +23°C° 0.3 mm 2 m/S 743 mmHg 79%
    09:00 +23°C° 0.7 mm 2 m/S 743 mmHg 77%
    10:00 +24°C° 0.7 mm 3 m/S 743 mmHg 76%
    11:00 +25°C° 0.7 mm 3 m/S 743 mmHg 74%
    12:00 +25°C° 0.4 mm 4 m/S 743 mmHg 73%
    13:00 +25°C° 0.4 mm 4 m/S 743 mmHg 71%
    14:00 +25°C° 0.4 mm 4 m/S 743 mmHg 70%
    15:00 +25°C° 0 mm 3 m/S 743 mmHg 69%
    16:00 +26°C° 0 mm 3 m/S 743 mmHg 68%
    17:00 +26°C° 0 mm 2 m/S 743 mmHg 67%
    18:00 +24°C° 0 mm 2 m/S 743 mmHg 70%
    19:00 +21°C° 0 mm 2 m/S 743 mmHg 74%
    20:00 +19°C° 0 mm 2 m/S 743 mmHg 77%
    21:00 +18°C° 0 mm 2 m/S 744 mmHg 78%
    22:00 +17°C° 0 mm 2 m/S 744 mmHg 79%
    23:00 +17°C° 0 mm 2 m/S 744 mmHg 80%

    19 Juni, Mittwoch

    Zeit Temperatur Niederschläge Wind Luftdruck Luftfeuchtigkeit
    00:00 +16°C° 0 mm 2 m/S 744 mmHg 83%
    01:00 +16°C° 0 mm 2 m/S 744 mmHg 86%
    02:00 +15°C° 0 mm 2 m/S 744 mmHg 88%
    03:00 +16°C° 0 mm 2 m/S 745 mmHg 87%
    04:00 +16°C° 0 mm 2 m/S 745 mmHg 86%
    05:00 +17°C° 0 mm 2 m/S 745 mmHg 85%
    06:00 +18°C° 0 mm 2 m/S 745 mmHg 79%
    07:00 +20°C° 0 mm 2 m/S 745 mmHg 73%
    08:00 +21°C° 0 mm 3 m/S 745 mmHg 68%
    09:00 +22°C° 0 mm 3 m/S 746 mmHg 63%
    10:00 +24°C° 0 mm 3 m/S 746 mmHg 57%
    11:00 +25°C° 0 mm 3 m/S 746 mmHg 52%
    12:00 +26°C° 0 mm 3 m/S 746 mmHg 52%
    13:00 +26°C° 0 mm 2 m/S 746 mmHg 52%
    14:00 +26°C° 0 mm 2 m/S 746 mmHg 52%
    15:00 +26°C° 0 mm 2 m/S 746 mmHg 55%
    16:00 +26°C° 0 mm 2 m/S 746 mmHg 58%
    17:00 +26°C° 0 mm 1 m/S 745 mmHg 61%
    18:00 +24°C° 0 mm 1 m/S 745 mmHg 66%
    19:00 +22°C° 0 mm 1 m/S 746 mmHg 71%
    20:00 +18°C° 0 mm 0 m/S 746 mmHg 76%
    21:00 +17°C° 0 mm 0 m/S 746 mmHg 79%
    22:00 +17°C° 0 mm 0 m/S 746 mmHg 81%
    23:00 +18°C° 0 mm 1 m/S 746 mmHg 83%

    20 Juni, Donnerstag

    Zeit Temperatur Niederschläge Wind Luftdruck Luftfeuchtigkeit
    00:00 +18°C° 0 mm 1 m/S 746 mmHg 85%
    01:00 +16°C° 0 mm 1 m/S 746 mmHg 86%
    02:00 +16°C° 0 mm 1 m/S 746 mmHg 87%
    03:00 +18°C° 0 mm 1 m/S 747 mmHg 86%
    04:00 +17°C° 0 mm 0 m/S 747 mmHg 85%
    05:00 +17°C° 0 mm 0 m/S 747 mmHg 83%
    06:00 +19°C° 0 mm 0 m/S 747 mmHg 78%
    07:00 +21°C° 0 mm 0 m/S 747 mmHg 72%
    08:00 +23°C° 0 mm 0 m/S 747 mmHg 66%
    09:00 +26°C° 0 mm 1 m/S 747 mmHg 61%
    10:00 +26°C° 0 mm 1 m/S 747 mmHg 56%
    11:00 +27°C° 0 mm 1 m/S 747 mmHg 50%
    12:00 +28°C° 0 mm 1 m/S 747 mmHg 50%
    13:00 +28°C° 0 mm 1 m/S 747 mmHg 49%
    14:00 +28°C° 0 mm 2 m/S 747 mmHg 48%
    15:00 +28°C° 0 mm 1 m/S 746 mmHg 52%
    16:00 +28°C° 0 mm 1 m/S 746 mmHg 56%
    17:00 +28°C° 0 mm 1 m/S 746 mmHg 60%
    18:00 +25°C° 0 mm 1 m/S 746 mmHg 65%
    19:00 +23°C° 0 mm 1 m/S 746 mmHg 70%
    20:00 +20°C° 0 mm 2 m/S 746 mmHg 74%
    21:00 +20°C° 0 mm 1 m/S 747 mmHg 76%
    22:00 +20°C° 0 mm 1 m/S 747 mmHg 77%
    23:00 +19°C° 0 mm 1 m/S 747 mmHg 78%

    21 Juni, Freitag

    Zeit Temperatur Niederschläge Wind Luftdruck Luftfeuchtigkeit
    00:00 +18°C° 0 mm 1 m/S 747 mmHg 80%
    01:00 +18°C° 0 mm 1 m/S 747 mmHg 83%
    02:00 +16°C° 0 mm 1 m/S 747 mmHg 85%
    03:00 +18°C° 0 mm 1 m/S 747 mmHg 85%
    04:00 +19°C° 0 mm 1 m/S 747 mmHg 85%
    05:00 +19°C° 0 mm 1 m/S 747 mmHg 85%
    06:00 +20°C° 0 mm 2 m/S 747 mmHg 80%
    07:00 +23°C° 0 mm 2 m/S 747 mmHg 75%
    08:00 +25°C° 0 mm 2 m/S 747 mmHg 71%
    09:00 +25°C° 0 mm 3 m/S 747 mmHg 67%
    10:00 +26°C° 0 mm 3 m/S 747 mmHg 62%
    11:00 +27°C° 0 mm 4 m/S 747 mmHg 58%
    12:00 +27°C° 0 mm 4 m/S 747 mmHg 59%
    13:00 +27°C° 0 mm 4 m/S 746 mmHg 59%
    14:00 +27°C° 0 mm 4 m/S 746 mmHg 60%
    15:00 +27°C° 0 mm 4 m/S 746 mmHg 63%
    16:00 +27°C° 0 mm 4 m/S 746 mmHg 67%
    17:00 +27°C° 0 mm 3 m/S 745 mmHg 70%
    18:00 +25°C° 0 mm 3 m/S 745 mmHg 74%
    19:00 +22°C° 0 mm 3 m/S 746 mmHg 79%
    20:00 +21°C° 0 mm 3 m/S 746 mmHg 83%
    21:00 +20°C° 0 mm 3 m/S 746 mmHg 84%
    22:00 +19°C° 0 mm 3 m/S 746 mmHg 86%
    23:00 +19°C° 0 mm 3 m/S 746 mmHg 88%
    Mehr zeigen